Hovedside
METAR-TAF:

METAR-TAF

Lufthavner :

Mosjøen lufthavn. Kjærstad

Mosjøen, Norge

breddegrad: 65-48N, lengdegrad: 013-08E, høyde over havet: 70 m

Gjeldene værobservasjon

Denne rapporten ble laget for 47 minutter siden, klokken 09:20 UTC
Vind 4 kt fra skiftende retning
Temperatur 18°C
Luftfuktighet 68%
Trykk 1015 hPa
Sikt 10 km eller mer
Få skyer i en høyde av 2500 ft

METAR: ENMS 200920Z VRB04KT 9999 FEW025 18/12 Q1015 RMK WIND 412FT VRB02KT

Tid: 12:07 (10:07 UTC)


TAF: fraværende

Værobservasjoner og værvarsel for over 4000 flyplasser (METAR- og TAF-rapporter).

Tilgjengelige stasjoner er representert av de røde og gule prikkene på kartet.

Hold musepekeren over prikken for å se navnet på stasjonen.

Klikk så for å se værobservasjoner og -varsler.

For å forandre kartet kan du klikke på den grønne knappen med svart kryss for å zoome inn, på den grønne knappen med strek for å zoome ut, eller på de grønne pilene for å se tilstøtende kart.


METAR-TAF: